Location: Waco, TX
(31.5480°N, 97.1670°W)
Time: 13:46:04
(UTC-05:00)

ISS - Pass Details

Date: 06 May 2021
Orbit: 417 x 422 km, 51.6° (Epoch: 15 May)

Event Time Altitude Azimuth Distance (km) Brightness Sun altitude
Rises 01:48:56 0° 249° (WSW) 2,350 - -41.5°
Reaches altitude 10° 01:51:14 10° 262° (W) 1,490 - -41.4°
Maximum altitude 01:54:07 26° 321° (NW) 858 - -41.3°
Drops below altitude 10° 01:57:00 10° 21° (NNE) 1,498 - -41.2°
Sets 01:59:20 0° 34° (NE) 2,366 - -41.1°
